User: anonymous   Login
Location: Newark
(52.2090°N, 4.1550°W)
Time: 11:44:57
(UTC+00:00)
Language:

Vanguard 1 - Orbit

View from above orbital plane
View from above orbital plane
View from above satellite
View from above satellite

Ground track
Ground track

The orbit data is extracted from the following two-line orbital elements,

1     5U 58002B   19264.37970663  .00000127  00000-0  14228-3 0  9993
2     5  34.2548 340.2214 1842293 217.1062 128.7009 10.84768184176027
Epoch (UTC): 21 September 2019 09:06:46
Eccentricity: 0.1842293
inclination: 34.2548°
perigee height: 654 km
apogee height: 3830 km
right ascension of ascending node: 340.2214°
argument of perigee: 217.1062°
revolutions per day: 10.84768184
mean anomaly at epoch: 128.7009°
orbit number at epoch: 17602

The dashed part of the orbit path shows where the satellite is in the earth's shadow,  

DLR